Time,TemperatureF,DewpointF,PressureIn,WindDirection,WindDirectionDegrees,WindSpeedMPH,WindSpeedGustMPH,Humidity,HourlyPrecipIn,Conditions,Clouds,dailyrainin,SolarRadiationWatts/m^2,SoftwareType,DateUTC
2013-09-27 00:02:00,58.0,29.0,-100.00,SW,226,15.0,22.0,33,0.00,,,0.00,0.000000,,2013-09-27 06:02:00,
2013-09-27 00:43:00,58.0,31.0,-100.00,SW,214,13.0,22.0,35,0.00,,,0.00,0.000000,,2013-09-27 06:43:00,
2013-09-27 00:52:00,58.0,31.0,-100.00,SW,214,13.0,22.0,35,0.00,,,0.00,0.000000,,2013-09-27 06:52:00,
2013-09-27 01:02:00,58.0,31.0,-100.00,SW,214,13.0,22.0,35,0.00,,,0.00,0.000000,,2013-09-27 07:02:00,
2013-09-27 01:44:00,57.0,31.0,-100.00,SSW,213,11.0,17.0,37,0.00,,,0.00,0.000000,,2013-09-27 07:44:00,
2013-09-27 01:53:00,57.0,31.0,-100.00,SSW,213,11.0,17.0,37,0.00,,,0.00,0.000000,,2013-09-27 07:53:00,
2013-09-27 02:02:00,57.0,31.0,-100.00,SSW,213,11.0,17.0,37,0.00,,,0.00,0.000000,,2013-09-27 08:02:00,
2013-09-27 02:42:00,56.0,31.0,-100.00,SSW,203,12.0,18.0,39,0.00,,,0.00,0.000000,,2013-09-27 08:42:00,
2013-09-27 02:52:00,56.0,31.0,-100.00,SSW,203,12.0,18.0,39,0.00,,,0.00,0.000000,,2013-09-27 08:52:00,
2013-09-27 03:02:00,56.0,31.0,-100.00,SSW,203,12.0,18.0,39,0.00,,,0.00,0.000000,,2013-09-27 09:02:00,
2013-09-27 03:44:00,51.0,29.0,-100.00,WSW,241,16.0,29.0,42,0.01,,,0.01,0.000000,,2013-09-27 09:44:00,
2013-09-27 03:53:00,51.0,29.0,-100.00,WSW,241,16.0,29.0,42,0.01,,,0.01,0.000000,,2013-09-27 09:53:00,
2013-09-27 04:03:00,51.0,29.0,-100.00,WSW,241,16.0,29.0,42,0.01,,,0.01,0.000000,,2013-09-27 10:03:00,
2013-09-27 04:42:00,48.0,44.0,-100.00,SW,232,12.0,25.0,86,0.05,,,0.06,0.000000,,2013-09-27 10:42:00,
2013-09-27 04:52:00,48.0,44.0,-100.00,SW,232,12.0,25.0,86,0.05,,,0.06,0.000000,,2013-09-27 10:52:00,
2013-09-27 05:02:00,48.0,44.0,-100.00,SW,232,12.0,25.0,86,0.05,,,0.06,0.000000,,2013-09-27 11:02:00,
2013-09-27 05:43:00,45.0,43.0,-100.00,West,261,10.0,20.0,94,0.04,,,0.10,0.000000,,2013-09-27 11:43:00,
2013-09-27 05:52:00,45.0,43.0,-100.00,West,261,10.0,20.0,94,0.04,,,0.10,0.000000,,2013-09-27 11:52:00,
2013-09-27 06:02:00,45.0,43.0,-100.00,West,261,10.0,20.0,94,0.04,,,0.10,0.000000,,2013-09-27 12:02:00,
2013-09-27 06:42:00,42.0,41.0,-100.00,WNW,293,6.0,16.0,97,0.02,,,0.12,0.000000,,2013-09-27 12:42:00,
2013-09-27 06:52:00,42.0,41.0,-100.00,WNW,293,6.0,16.0,97,0.02,,,0.12,0.000000,,2013-09-27 12:52:00,
2013-09-27 07:02:00,42.0,41.0,-100.00,WNW,293,6.0,16.0,97,0.02,,,0.12,0.000000,,2013-09-27 13:02:00,
2013-09-27 07:42:00,43.0,42.0,-100.00,West,281,6.0,14.0,97,0.02,,,0.14,0.000000,,2013-09-27 13:42:00,
2013-09-27 07:52:00,43.0,42.0,-100.00,West,281,6.0,14.0,97,0.02,,,0.14,0.000000,,2013-09-27 13:52:00,
2013-09-27 08:02:00,43.0,42.0,-100.00,West,281,6.0,14.0,97,0.02,,,0.14,0.000000,,2013-09-27 14:02:00,
2013-09-27 08:42:00,40.0,39.0,-100.00,WSW,255,8.0,14.0,97,0.04,,,0.18,9.000000,,2013-09-27 14:42:00,
2013-09-27 08:52:00,40.0,39.0,-100.00,WSW,255,8.0,14.0,97,0.04,,,0.18,9.000000,,2013-09-27 14:52:00,
2013-09-27 09:02:00,40.0,39.0,-100.00,WSW,255,8.0,14.0,97,0.04,,,0.18,9.000000,,2013-09-27 15:02:00,
2013-09-27 09:44:00,40.0,39.0,-100.00,West,267,7.0,12.0,96,0.01,,,0.19,43.000000,,2013-09-27 15:44:00,
2013-09-27 09:54:00,40.0,39.0,-100.00,West,267,7.0,12.0,96,0.01,,,0.19,43.000000,,2013-09-27 15:54:00,
2013-09-27 10:04:00,40.0,39.0,-100.00,West,267,7.0,12.0,96,0.01,,,0.19,43.000000,,2013-09-27 16:04:00,
2013-09-27 10:44:00,41.0,40.0,-100.00,WSW,240,6.0,11.0,98,0.00,,,0.19,69.000000,,2013-09-27 16:44:00,
2013-09-27 10:53:00,41.0,40.0,-100.00,WSW,240,6.0,11.0,98,0.00,,,0.19,69.000000,,2013-09-27 16:53:00,
2013-09-27 11:03:00,41.0,40.0,-100.00,WSW,240,6.0,11.0,98,0.00,,,0.19,69.000000,,2013-09-27 17:03:00,
2013-09-27 11:43:00,43.0,41.0,-100.00,WSW,254,5.0,11.0,94,0.00,,,0.19,128.000000,,2013-09-27 17:43:00,
2013-09-27 11:52:00,43.0,41.0,-100.00,WSW,254,5.0,11.0,94,0.00,,,0.19,128.000000,,2013-09-27 17:52:00,
2013-09-27 12:02:00,43.0,41.0,-100.00,WSW,254,5.0,11.0,94,0.00,,,0.19,128.000000,,2013-09-27 18:02:00,
2013-09-27 12:43:00,43.0,39.0,-100.00,West,280,8.0,14.0,86,0.00,,,0.19,152.000000,,2013-09-27 18:43:00,
2013-09-27 12:52:00,43.0,39.0,-100.00,West,280,8.0,14.0,86,0.00,,,0.19,152.000000,,2013-09-27 18:52:00,
2013-09-27 13:02:00,43.0,39.0,-100.00,West,280,8.0,14.0,86,0.00,,,0.19,152.000000,,2013-09-27 19:02:00,
2013-09-27 13:43:00,43.0,34.0,-100.00,WSW,257,10.0,20.0,70,0.00,,,0.19,178.000000,,2013-09-27 19:43:00,
2013-09-27 13:53:00,43.0,34.0,-100.00,WSW,257,10.0,20.0,70,0.00,,,0.19,178.000000,,2013-09-27 19:53:00,
2013-09-27 14:03:00,43.0,34.0,-100.00,WSW,257,10.0,20.0,70,0.00,,,0.19,178.000000,,2013-09-27 20:03:00,
2013-09-27 14:43:00,44.0,36.0,-100.00,WSW,258,8.0,20.0,73,0.00,,,0.19,218.000000,,2013-09-27 20:43:00,
2013-09-27 14:52:00,44.0,36.0,-100.00,WSW,258,8.0,20.0,73,0.00,,,0.19,218.000000,,2013-09-27 20:52:00,
2013-09-27 15:02:00,44.0,36.0,-100.00,WSW,258,8.0,20.0,73,0.00,,,0.19,218.000000,,2013-09-27 21:02:00,
2013-09-27 15:44:00,46.0,33.0,-100.00,West,259,10.0,17.0,60,0.00,,,0.19,360.000000,,2013-09-27 21:44:00,
2013-09-27 15:54:00,46.0,33.0,-100.00,West,259,10.0,17.0,60,0.00,,,0.19,360.000000,,2013-09-27 21:54:00,
2013-09-27 16:04:00,46.0,33.0,-100.00,West,259,10.0,17.0,60,0.00,,,0.19,360.000000,,2013-09-27 22:04:00,
2013-09-27 16:43:00,47.0,31.0,-100.00,West,266,10.0,19.0,53,0.01,,,0.20,444.000000,,2013-09-27 22:43:00,
2013-09-27 16:53:00,47.0,31.0,-100.00,West,266,10.0,19.0,53,0.01,,,0.20,444.000000,,2013-09-27 22:53:00,
2013-09-27 17:03:00,47.0,31.0,-100.00,West,266,10.0,19.0,53,0.01,,,0.20,444.000000,,2013-09-27 23:03:00,
2013-09-27 17:43:00,50.0,23.0,-100.00,WSW,254,12.0,21.0,35,0.00,,,0.20,478.000000,,2013-09-27 23:43:00,
2013-09-27 17:53:00,50.0,23.0,-100.00,WSW,254,12.0,21.0,35,0.00,,,0.20,478.000000,,2013-09-27 23:53:00,
2013-09-27 18:02:00,50.0,23.0,-100.00,WSW,254,12.0,21.0,35,0.00,,,0.20,478.000000,,2013-09-28 00:02:00,
2013-09-27 18:42:00,47.0,19.0,-100.00,West,278,10.0,21.0,33,0.00,,,0.20,268.000000,,2013-09-28 00:42:00,
2013-09-27 18:52:00,47.0,19.0,-100.00,West,278,10.0,21.0,33,0.00,,,0.20,268.000000,,2013-09-28 00:52:00,
2013-09-27 19:01:00,47.0,19.0,-100.00,West,278,10.0,21.0,33,0.00,,,0.20,268.000000,,2013-09-28 01:01:00,
2013-09-27 19:42:00,43.0,20.0,-100.00,WNW,291,7.0,15.0,39,0.00,,,0.20,51.000000,,2013-09-28 01:42:00,
2013-09-27 19:52:00,43.0,20.0,-100.00,WNW,291,7.0,15.0,39,0.00,,,0.20,51.000000,,2013-09-28 01:52:00,
2013-09-27 20:03:00,43.0,20.0,-100.00,WNW,291,7.0,15.0,39,0.00,,,0.20,51.000000,,2013-09-28 02:03:00,
2013-09-27 20:42:00,40.0,22.0,-100.00,NW,307,6.0,10.0,49,0.00,,,0.20,0.000000,,2013-09-28 02:42:00,
2013-09-27 20:53:00,40.0,22.0,-100.00,NW,307,6.0,10.0,49,0.00,,,0.20,0.000000,,2013-09-28 02:53:00,
2013-09-27 21:03:00,40.0,22.0,-100.00,NW,307,6.0,10.0,49,0.00,,,0.20,0.000000,,2013-09-28 03:03:00,
2013-09-27 21:45:00,40.0,24.0,-100.00,NW,322,6.0,11.0,52,0.00,,,0.20,0.000000,,2013-09-28 03:45:00,
2013-09-27 21:55:00,40.0,24.0,-100.00,NW,322,6.0,11.0,52,0.00,,,0.20,0.000000,,2013-09-28 03:55:00,
2013-09-27 22:04:00,40.0,24.0,-100.00,NW,322,6.0,11.0,52,0.00,,,0.20,0.000000,,2013-09-28 04:04:00,
2013-09-27 22:43:00,39.0,25.0,-100.00,NNW,340,7.0,10.0,58,0.00,,,0.20,0.000000,,2013-09-28 04:43:00,
2013-09-27 22:54:00,39.0,25.0,-100.00,NNW,340,7.0,10.0,58,0.00,,,0.20,0.000000,,2013-09-28 04:54:00,
2013-09-27 23:03:00,39.0,25.0,-100.00,NNW,340,7.0,10.0,58,0.00,,,0.20,0.000000,,2013-09-28 05:03:00,
2013-09-27 23:43:00,40.0,24.0,-100.00,NNW,331,8.0,10.0,52,0.00,,,0.20,0.000000,,2013-09-28 05:43:00,